Simultaneous Nadir Overpasses (SNOs) Predictions

Prediction of SNOs between AQUA and NOAA-19 Satellite Orbit:

Table of predicted SNOs for the next 14.0 days since TLE Epoch: 4/6/2018
Index Date (AQUA) Time (AQUA) Lat,Lon (AQUA) SZA (AQUA ) Date (NOAA-19) Time (NOAA-19) Lat,Lon (NOAA-19) SZA (NOAA-19 ) Distance(km) Time Diff (sec)
1 04/08/2018 15:46:45 80.85, -95.52 75.58 04/08/2018 15:46:47 80.84, -95.56 75.57 1.41 2
2 04/10/2018 21:20:28 -80.84, 1.19 105.29 04/10/2018 21:20:19 -80.84, 1.09 105.27 1.70 9
3 04/13/2018 02:54:12 80.83, 97.89 73.87 04/13/2018 02:54:01 80.84, 97.83 73.89 1.82 11
4 04/15/2018 08:27:57 -80.85,-165.82 106.91 04/15/2018 08:27:35 -80.83,-165.71 106.92 2.36 22
5 04/15/2018 09:17:21 80.77, 2.72 72.94 04/15/2018 09:18:29 80.89, 5.48 72.74 50.58 68
6 04/17/2018 14:01:41 80.84, -69.15 72.28 04/17/2018 14:01:17 80.83, -69.32 72.30 3.25 24
7 04/17/2018 14:51:07 -80.83, 98.63 107.76 04/17/2018 14:52:12 -80.84, 98.69 107.78 1.97 65
8 04/19/2018 19:35:25 -80.84, 27.40 108.50 04/19/2018 19:34:51 -80.83, 27.38 108.50 1.36 34




NCC Satellite Simultaneous Nadir Overpasses (SNOs) Prediction Service
